FW6176 Weather Reports


Display with metric or nautical units.
time (UTC)temp
F
wind
direction
speed
MPH
gust
MPH
rain 1hr
in
rain 24hr
in
rain mn
in
humidity
%
barometer
mb
20260904010058 92 228 0.0 0.0 0.00 0.00 0.00 50 1011.4
20260904004558 93 228 0.0 2.0 0.00 0.00 0.00 48 1011.4
20260904003101 94 101 0.0 0.0 0.00 0.00 0.00 46 1011.3
20260904001556 95 101 0.0 3.0 0.00 0.00 0.00 45 1011.2
20260904000100 96 110 0.0 1.0 0.00 0.00 0.00 43 1011.2
20260903234556 97 119 0.0 0.0 0.00 0.00 0.00 42 1011.2
20260903233055 99 207 0.0 1.0 0.00 0.00 0.00 40 1011.3
20260903231604 98 133 0.0 3.0 0.00 0.00 0.00 41 1011.2
20260903230105 98 107 0.0 2.0 0.00 0.00 0.00 41 1011.2
20260903224554 98 137 0.0 2.0 0.00 0.00 0.00 41 1011.1
20260903223106 99 126 0.0 3.0 0.00 0.00 0.00 40 1011.2
20260903221554 99 141 0.0 4.0 0.00 0.00 0.00 41 1011.2
20260903214554 101 41 0.0 3.0 0.00 0.00 0.00 37 1011.2
20260903213051 100 160 0.0 3.0 0.00 0.00 0.00 38 1011.4
20260903211549 100 149 0.0 2.0 0.00 0.00 0.00 41 1011.5
20260903210051 102 27 0.0 1.0 0.00 0.00 0.00 37 1011.7
20260903204552 102 152 0.0 3.0 0.00 0.00 0.00 38 1011.7
20260903203044 101 136 0.0 3.0 0.00 0.00 0.00 39 1011.8
20260903201543 101 138 0.0 4.0 0.00 0.00 0.00 39 1012.0
20260903200046 101 321 0.0 2.0 0.00 0.00 0.00 39 1012.0
20260903194545 100 2 0.0 2.0 0.00 0.00 0.00 42 1012.2
20260903193035 100 94 0.0 3.0 0.00 0.00 0.00 42 1012.5
20260903191535 100 101 0.0 3.0 0.00 0.00 0.00 43 1012.7
20260903190031 99 299 0.0 4.0 0.00 0.00 0.00 44 1012.9
20260903184530 99 53 1.0 4.0 0.00 0.00 0.00 45 1013.0
20260903183038 99 295 0.0 5.0 0.00 0.00 0.00 44 1013.2
20260903181527 99 295 0.0 4.0 0.00 0.00 0.00 44 1013.3
20260903180034 98 299 0.0 5.0 0.00 0.00 0.00 44 1013.5
20260903174525 98 255 1.0 4.0 0.00 0.00 0.00 45 1013.6
20260903173022 97 258 0.0 4.0 0.00 0.00 0.00 46 1013.7
20260903171527 97 285 0.0 4.0 0.00 0.00 0.00 49 1013.9
20260903170023 98 273 0.0 3.0 0.00 0.00 0.00 47 1014.0
20260903164517 97 262 0.0 3.0 0.00 0.00 0.00 49 1014.1
20260903163018 97 216 0.0 3.0 0.00 0.00 0.00 51 1014.2
20260903161513 97 234 0.0 2.0 0.00 0.00 0.00 51 1014.3
20260903160015 96 248 0.0 5.0 0.00 0.00 0.00 50 1014.3
20260903154510 95 296 0.0 5.0 0.00 0.00 0.00 52 1014.3
20260903153007 95 246 0.0 2.0 0.00 0.00 0.00 55 1014.3
20260903151502 94 248 0.0 2.0 0.00 0.00 0.00 56 1014.3
20260903150058 93 254 0.0 3.0 0.00 0.00 0.00 55 1014.3
20260903144558 93 267 0.0 2.0 0.00 0.00 0.00 56 1014.3
20260903143051 92 284 1.0 5.0 0.00 0.00 0.00 56 1014.2
20260903141548 90 26 0.0 2.0 0.00 0.00 0.00 59 1014.2
20260903140044 88 84 0.0 1.0 0.00 0.00 0.00 62 1014.3
20260903134549 87 311 0.0 0.0 0.00 0.00 0.00 61 1014.3
20260903133049 88 275 0.0 5.0 0.00 0.00 0.00 61 1014.3
20260903131543 86 213 0.0 1.0 0.00 0.00 0.00 64 1014.3
20260903130040 85 79 0.0 1.0 0.00 0.00 0.00 65 1014.4
20260903124555 84 77 0.0 2.0 0.00 0.00 0.00 66 1014.3
20260903123042 84 127 0.0 1.0 0.00 0.00 0.00 65 1014.3
20260903121546 83 60 0.0 1.0 0.00 0.00 0.00 66 1014.2
20260903120037 82 121 0.0 1.0 0.00 0.00 0.00 67 1014.0
20260903114536 82 129 0.0 1.0 0.00 0.00 0.00 66 1013.8
20260903113034 83 147 0.0 1.0 0.00 0.00 0.00 66 1013.8
20260903111534 83 100 0.0 1.0 0.00 0.00 0.00 66 1013.7
20260903110032 83 84 0.0 1.0 0.00 0.00 0.00 65 1013.6
20260903104534 83 103 0.0 2.0 0.00 0.00 0.00 65 1013.5
20260903103029 83 94 0.0 2.0 0.00 0.00 0.00 65 1013.4
20260903101532 84 85 0.0 2.0 0.00 0.00 0.00 65 1013.3
20260903100031 84 71 0.0 1.0 0.00 0.00 0.00 64 1013.4
20260903094527 84 134 0.0 2.0 0.00 0.00 0.00 64 1013.3
20260903093026 84 78 0.0 2.0 0.00 0.00 0.00 64 1013.3
20260903091532 84 352 0.0 2.0 0.00 0.00 0.00 64 1013.2
20260903090027 84 134 0.0 0.0 0.00 0.00 0.00 64 1013.3
20260903084525 84 238 0.0 1.0 0.00 0.00 0.00 64 1013.3
20260903083027 84 87 0.0 2.0 0.00 0.00 0.00 65 1013.3
20260903081524 83 127 0.0 0.0 0.00 0.00 0.00 66 1013.3
20260903080022 84 127 0.0 1.0 0.00 0.00 0.00 65 1013.3
20260903074520 84 130 0.0 1.0 0.00 0.00 0.00 65 1013.2
20260903073019 84 130 0.0 1.0 0.00 0.00 0.00 64 1013.2
20260903071518 85 119 0.0 1.0 0.00 0.00 0.00 63 1013.2
20260903070016 85 99 0.0 1.0 0.00 0.00 0.00 63 1013.2
20260903064514 85 168 0.0 2.0 0.00 0.00 0.00 63 1013.3
20260903063013 86 117 0.0 1.0 0.00 0.00 0.00 62 1013.3
20260903061512 86 149 0.0 2.0 0.00 0.00 0.00 62 1013.3
20260903060009 86 169 0.0 3.0 0.00 0.00 0.00 61 1013.3
20260903054507 87 113 0.0 2.0 0.00 0.00 0.00 61 1013.1
20260903053007 87 139 0.0 1.0 0.00 0.00 0.00 60 1013.3
20260903051506 87 139 0.0 2.0 0.00 0.00 0.00 60 1013.2
20260903050003 88 122 0.0 1.0 0.00 0.00 0.00 60 1013.2
20260903044502 88 156 0.0 2.0 0.00 0.00 0.00 59 1013.2
20260903043002 88 25 0.0 2.0 0.00 0.00 0.00 59 1013.2
20260903041502 89 163 0.0 2.0 0.00 0.00 0.00 59 1013.1
20260903040001 89 174 0.0 2.0 0.00 0.00 0.00 58 1013.2
20260903034600 89 23 0.0 3.0 0.00 0.00 0.00 58 1013.1
20260903033102 90 133 0.0 3.0 0.00 0.00 0.00 57 1013.2
20260903031600 90 239 0.0 5.0 0.00 0.00 0.00 57 1013.2
20260903030108 90 167 1.0 5.0 0.00 0.00 0.00 57 1013.1
20260903024559 90 107 0.0 1.0 0.00 0.00 0.00 58 1013.1
20260903023105 90 284 0.0 1.0 0.00 0.00 0.00 57 1013.1
20260903021558 90 134 0.0 2.0 0.00 0.00 0.00 56 1013.0
20260903020058 91 115 0.0 1.0 0.00 0.00 0.00 54 1012.9
20260903014600 92 106 0.0 3.0 0.00 0.00 0.00 53 1012.8
20260903013058 92 264 0.0 3.0 0.00 0.00 0.00 51 1012.6
20260903011559 93 127 0.0 1.0 0.00 0.00 0.00 49 1012.4